Regional Weather Roundup
Issued by NWS

Home | Current Version | Previous Version | Text Only | Print | Product List | Glossary Off
Versions: 1 2 3 4 5 6 7 8 9 10 11 12 13 14 15 16 17 18 19 20 21 22 23 24 25 26 27

000
ASUS45 KCYS 242110
RWRWY

WYOMING REGIONAL WEATHER ROUNDUP
NATIONAL WEATHER SERVICE CHEYENNE WY
300 PM MDT FRI MAR 24 2017

NOTE:  "FAIR" INDICATES FEW OR NO CLOUDS BELOW 12,000 FEET
WITH NO SIGNIFICANT WEATHER AND/OR OBSTRUCTIONS TO VISIBILITY.

WYZ001-242200-
YELLOWSTONE NATIONAL PARK

CITY           SKY/WX    TMP DP  RH WIND       PRES   REMARKS
LK YELLOWSTONE   N/A     42  19  39 VRB5      30.11F
W YELLOWSTONE  NOT AVBL

$$
WYZ002>013-054>058-071-098>099-242200-
NORTHERN WYOMING

CITY           SKY/WX    TMP DP  RH WIND       PRES   REMARKS
JACKSON        SUNNY     46  19  34 S16       30.12F
CODY           FAIR      58  19  22 S12       30.01F
GREYBULL       FAIR      59  32  36 SE18G25   30.02F
WORLAND        FAIR      58  29  33 S9G20     30.03F
SHERIDAN       FAIR      61  34  36 SE17      29.99F
BUFFALO        FAIR      60  25  26 S9G17     30.02F
GILLETTE       FAIR      57  31  37 S8        30.06F
HULETT         FAIR      55  27  33 SE6       30.09F
NEWCASTLE      FAIR      57  18  21 W8G17     30.09F

$$
WYZ014>020-022>026-101>103-242200-
CENTRAL WYOMING

CITY           SKY/WX    TMP DP  RH WIND       PRES   REMARKS
BIG PINEY      FAIR      43  30  60 S8        30.19F
PINEDALE       FAIR      37  28  70 CALM      30.21F
DUBOIS         FAIR      48  23  37 CALM      30.09F
LANDER         FAIR      56  32  40 VRB5      30.05F
RIVERTON       FAIR      55  23  28 VRB5      30.08F
CASPER         FAIR      56  24  29 SW6       30.09F
DOUGLAS        PTSUNNY   57  26  30 VRB7      30.10F

$$
WYZ021-027>030-104>119-242200-
SOUTHERN WYOMING

CITY           SKY/WX    TMP DP  RH WIND       PRES   REMARKS
EVANSTON       FAIR      45  29  53 VRB3      30.18F
KEMMERER         N/A     43  28  56 W5        30.20F
FORT BRIDGER   FAIR      51  23  33 E3        30.20F
ROCK SPRINGS   FAIR      49  29  46 VRB6      30.18F
DIXON            N/A     51  24  34 NW5       30.18F
RAWLINS        FAIR      53  18  25 NW12G18   30.14F
SARATOGA       FAIR      50  21  32 NW9       30.17F
LARAMIE        PTSUNNY   48  22  35 N15G23    30.14F
CHEYENNE       FAIR      49  22  34 N16G26    30.13S
TORRINGTON     FAIR      60  18  19 N10G24    30.08F
PINE BLUFFS    CLOUDY    50  28  43 N15G22    30.11S

$$




USA.gov is the U.S. government's official web portal to all federal, state and local government web resources and services.